Weather Roundup
Issued by NWS

Home | Current Version | Previous Version | Graphics & Text | Print | Product List | Glossary Off
Versions: 1 2 3 4 5 6 7 8 9 10 11 12 13 14 15 16 17 18 19 20 21 22 23 24 25 26 27 28 29 30 31 32 33 34 35 36 37 38 39 40 41 42 43 44 45 46 47 48 49 50

000
NZUS93 KARX 241610
HRRWXR

CURRENT HOURLY OBSERVATIONS ACROSS
MUCH OF THE UPPER MISSISSIPPI VALLEY
NATIONAL WEATHER SERVICE LA CROSSE WI
1100 AM CDT WED MAY 24 2017


...SOUTHEAST MINNESOTA...


CITY           SKY/WX    TMP DP  RH WIND       PRES   REMARKS
ROCHESTER      CLOUDY    54  49  83 N12       29.74S
ROCHESTER/MAYO NOT AVBL
WINONA         CLOUDY    55  46  71 NE3       29.72F
AUSTIN         CLOUDY    52  46  82 N7        29.73S
ALBERT LEA     CLOUDY    54  48  82 N9        29.74F
DODGE CENTER   PTSUNNY   52  46  82 N10       29.74S
PRESTON        CLOUDY    54  46  76 NE9       29.72F
OWATONNA       CLOUDY    52  46  82 N9        29.75F
FARIBAULT      CLOUDY    54  46  76 N7        29.76F
$$

...ELSEWHERE IN MINNESOTA...


CITY           SKY/WX    TMP DP  RH WIND       PRES   REMARKS
MINNEAPOLIS    PTSUNNY   56  45  66 NW9       29.76F
INTNL FALLS    FAIR      61  36  39 VRB7      29.81F
DULUTH         PTSUNNY   55  45  68 E12G22    29.80F
RED WING       PTSUNNY   57  45  62 N6        29.73F
REDWOOD FALLS  PTSUNNY   57  43  59 VRB7      29.77F
MANKATO        NOT AVBL
WORTHINGTON    CLOUDY    52  45  77 N8        29.78F
FAIRMONT       NOT AVBL
$$

...SOUTHWEST WISCONSIN...


CITY           SKY/WX    TMP DP  RH WIND       PRES   REMARKS
LA CROSSE      CLOUDY    55  49  80 N8        29.71S
PRAIRIE DU CHI CLOUDY    54  47  75 N7        29.67F
BOSCOBEL       CLOUDY    56  49  77 NE8       29.68S
LONE ROCK      CLOUDY    54  48  80 NE8       29.67S
PLATTEVILLE    CLOUDY    55  52  88 N13       29.65S
FORT MC COY    CLOUDY    51  49  93 N7        29.71S
CAMP DOUGLAS   DRIZZLE   52  50  93 N7        29.69F
MAUSTON-NEW LI CLOUDY    51  49  90 NE6       29.68S
VIROQUA        CLOUDY    51  48  89 MISG      29.69S
WIS DELLS      CLOUDY    51  48  90 NE6       29.67F
$$

...ELSEWHERE IN WISCONSIN...


CITY           SKY/WX    TMP DP  RH WIND       PRES   REMARKS
MILWAUKEE      FOG       52  51  97 N16       29.61F VSB 1/2
MADISON        CLOUDY    52  51  97 N12       29.64F
GREEN BAY      CLOUDY    51  51 100 NE14      29.70S
EAU CLAIRE     PTSUNNY   58  45  62 NE9       29.72F
BLACK RVR FLS  CLOUDY    55  47  76 N6        29.71S
MEDFORD        CLOUDY    51  46  82 NE10      29.72F
WAUSAU         CLOUDY    52  49  89 NE10      29.70S
WIS RAPIDS     CLOUDY    52  49  89 NE8       29.71S
MARSHFIELD     CLOUDY    52  47  83 NE13      29.70S
RICE LAKE      CLOUDY    53  45  74 N14       29.77F
$$

...NORTHEAST IOWA...


CITY           SKY/WX    TMP DP  RH WIND       PRES   REMARKS
WATERLOO       CLOUDY    54  48  80 N12       29.68F
DUBUQUE        CLOUDY    54  49  83 N9        29.64F
DECORAH        CLOUDY    52  48  87 N9        29.69S
MASON CITY     CLOUDY    53  48  83 N13       29.74S
CHARLES CITY   CLOUDY    54  50  87 N14       29.71S
OELWEIN        CLOUDY    54  50  87 N14       29.68F
$$

...ELSEWHERE IN IOWA...


CITY           SKY/WX    TMP DP  RH WIND       PRES   REMARKS
DES MOINES     CLOUDY    55  49  80 N12       29.69S
IOWA CITY      PTSUNNY   59  52  77 N13       29.65S
FORT DODGE     CLOUDY    55  48  76 N9        29.74S
MARSHALLTOWN   CLOUDY    54  50  86 NE16      29.68S
CEDAR RAPIDS   CLOUDY    55  52  89 NE13      29.64F
$$

...NORTHERN ILLINOIS...


CITY           SKY/WX    TMP DP  RH WIND       PRES   REMARKS
CHICAGO-OHARE  CLOUDY    56  50  80 NE18      29.57F
CHICAGO-MIDWAY CLOUDY    57  53  86 NE14      29.56F
MOLINE         CLOUDY    59  49  69 N12G20    29.60S
ROCKFORD       CLOUDY    55  52  89 N10       29.63F FOG
PEORIA         PTSUNNY   64  54  69 N9        29.57F
$$

NOTE: "FAIR" INDICATES FEW OR NO CLOUDS BELOW 12,000 FEET WITH NO
SIGNIFICANT WEATHER AND/OR OBSTRUCTIONS TO VISIBILITY. WIND
SPEEDS ARE IN MILES-PER-HOUR.




USA.gov is the U.S. government's official web portal to all federal, state and local government web resources and services.